Location: Excel
(51.3833°N, 110.5667°W)
Time: 13:07:03
(UTC+00:00)

Envisat - Pass Details

Date: 03 December 2021
Orbit: 764 x 766 km, 98.2° (Epoch: 28 January)

Event Time Altitude Azimuth Distance (km) Brightness Sun altitude
Rises 11:09:00 0° 26° (NNE) 3,247 6.7 -36.2°
Reaches altitude 10° 11:12:04 10° 45° (NE) 2,314 6.0 -35.7°
Maximum altitude 11:15:31 18° 88° (E) 1,816 5.6 -35.2°
Drops below altitude 10° 11:18:56 10° 131° (SE) 2,302 5.9 -34.7°
Sets 11:21:57 0° 150° (SSE) 3,222 6.5 -34.2°
